GFSFLT2_850_spd_018.txt.gz
Wind_Speed
21 20 17 15 15 14 11 9 7 8 8 9 10 10 10 9 9 9 8 8 8 8 8 10 13 15 19 20 17 17 16 17
20 19 17 14 13 11 10 8 8 8 9 11 12 13 10 9 7 4 5 6 6 7 9 11 11 13 13 17 14 14 11 16
23 21 17 14 12 12 11 10 10 11 11 15 12 11 9 6 9 7 6 7 9 10 12 12 10 15 15 14 14 13 11 15
19 18 16 14 13 13 15 17 13 11 9 13 6 5 3 1 5 7 8 10 10 10 14 13 10 13 9 13 12 14 9 14
21 22 18 16 13 13 15 10 10 6 9 9 3 4 2 4 4 5 9 11 5 10 8 15 17 12 15 14 15 13 11 12
19 25 19 13 16 16 16 15 11 12 6 7 4 2 4 7 4 5 3 6 6 6 8 11 11 12 14 17 18 13 14 11
19 24 18 20 17 20 19 17 12 6 1 5 7 6 7 7 6 18 11 9 11 14 14 15 18 17 15 15 16 19 15 16
21 20 20 20 21 20 15 17 9 8 7 4 6 11 11 13 15 15 9 11 15 17 13 15 14 13 14 16 17 17 17 15
19 17 19 19 19 17 19 17 8 16 9 13 16 19 8 9 11 10 11 13 10 12 13 12 14 17 17 18 17 18 18 16
16 15 20 19 16 21 21 10 11 9 14 13 3 3 1 2 5 5 9 9 9 13 13 13 16 18 20 23 20 20 20 18
19 18 20 21 15 21 14 8 6 5 5 3 2 3 3 4 4 10 10 7 9 12 15 18 23 22 22 21 24 23 19 19
16 19 22 17 14 16 10 4 7 2 7 1 8 3 2 5 6 12 11 9 10 15 20 18 20 22 21 21 21 19 19 16
19 20 17 14 12 8 6 7 10 9 7 5 5 1 4 6 7 9 10 12 15 17 19 19 21 20 21 19 20 22 16 14
18 18 14 13 11 10 10 10 7 9 7 2 4 3 6 3 12 13 13 17 19 16 20 22 19 16 17 21 20 22 18 17
15 13 17 15 15 14 15 14 12 9 1 2 6 11 9 10 12 14 18 17 17 19 20 16 17 16 14 15 23 17 24 20
16 15 15 20 16 13 9 8 13 13 10 8 2 7 7 7 11 14 15 17 20 18 15 19 21 16 16 16 19 20 22 26
22 22 18 16 13 17 15 10 9 9 6 2 3 9 13 15 14 18 18 18 16 19 16 18 16 17 17 16 16 16 16 20
23 19 17 17 17 19 19 18 16 10 8 8 13 11 12 12 17 19 16 15 14 15 17 16 16 20 23 21 14 15 17 17
22 20 19 19 20 21 20 15 10 6 10 7 11 10 10 13 18 16 16 15 13 16 18 19 24 21 11 12 12 15 16 18
22 22 19 17 17 17 13 7 7 8 6 8 5 9 11 14 15 16 13 13 17 21 22 20 22 16 18 13 16 15 14 15

GFSFLT2_850_spd_021.txt.gz
Wind_Speed
24 26 25 17 18 17 14 12 13 13 15 15 15 15 14 13 12 11 10 9 9 9 11 12 12 13 14 12 11 16 19 12
27 28 15 17 17 15 14 13 13 14 16 17 16 14 12 11 7 7 6 7 8 9 12 10 10 11 8 9 7 10 14 15
21 23 18 17 17 16 14 14 15 18 17 15 14 10 10 10 11 9 9 10 8 10 12 9 5 10 13 10 12 13 13 14
23 20 18 16 15 15 17 18 19 20 16 13 9 8 7 10 9 8 11 6 6 8 6 8 8 7 9 13 13 13 11 11
24 23 20 16 17 22 17 16 16 18 13 13 10 9 9 5 3 6 4 5 1 2 2 4 3 5 9 13 16 15 11 16
27 24 19 20 22 21 20 19 17 17 14 14 11 11 7 7 5 5 3 3 3 4 6 9 10 11 10 9 10 12 13 14
28 24 19 19 19 24 17 16 14 12 10 9 8 6 2 6 11 9 11 7 9 11 12 12 10 9 8 9 11 12 13 14
31 27 24 24 26 20 18 16 12 8 6 6 7 4 8 8 10 10 7 6 9 10 10 10 14 17 14 15 16 17 17 14
28 27 26 23 22 22 19 19 11 3 6 4 7 3 0 2 4 7 6 5 6 10 14 16 17 15 16 20 15 14 16 17
26 25 27 22 19 20 24 22 3 7 6 6 3 3 5 4 2 3 5 8 12 13 15 13 14 20 22 19 13 15 18 18
22 23 23 20 18 21 25 14 6 4 1 5 6 6 4 0 2 7 9 10 11 13 15 18 23 25 22 20 15 14 15 12
22 24 23 19 19 24 23 11 4 4 9 7 5 3 3 4 6 7 9 12 15 16 19 22 22 21 23 19 16 12 14 13
22 21 21 20 20 25 19 12 12 11 7 5 5 4 5 8 8 12 15 17 19 21 22 21 21 21 20 21 21 18 9 12
22 20 15 18 16 19 13 16 15 9 8 9 9 7 6 9 12 15 16 18 20 19 19 21 17 16 19 19 12 21 6 10
18 20 17 19 20 18 20 18 16 14 11 10 8 7 8 13 15 17 18 21 21 22 21 18 17 16 17 14 9 5 21 11
15 15 22 24 22 22 25 24 22 18 14 12 10 10 13 17 20 19 20 20 20 21 20 19 20 22 18 14 16 16 17 15
9 25 21 22 29 25 23 22 21 22 22 16 9 11 15 19 20 19 18 19 18 15 15 16 18 16 16 17 18 20 19 17
21 24 29 30 25 26 25 27 28 24 19 13 11 15 18 16 15 16 17 16 15 14 15 17 19 20 20 23 17 12 13 14
28 31 28 28 26 27 26 24 21 18 14 14 17 16 13 14 15 16 15 14 15 15 16 20 21 22 20 13 14 13 15 17
27 27 27 28 28 27 24 21 18 16 15 15 14 11 11 13 14 14 15 12 13 17 19 19 14 15 14 15 16 17 14 13

GFSFLT2_850_spd_024.txt.gz
Wind_Speed
33 37 41 27 17 12 12 15 16 18 19 19 19 19 19 17 16 14 12 11 11 12 10 8 10 10 11 8 10 12 13 12
30 36 34 31 22 18 15 15 16 19 19 19 19 18 16 13 12 11 11 9 10 11 8 7 5 4 10 7 10 12 12 14
18 35 22 20 20 19 18 17 19 20 20 19 18 17 15 14 14 13 10 9 9 6 4 4 1 5 7 9 11 14 16 15
32 31 24 22 20 20 19 20 21 20 17 16 16 14 16 14 12 9 8 7 7 3 2 1 0 2 4 8 11 11 12 10
30 25 23 23 22 22 22 23 22 21 18 14 13 12 12 11 9 5 6 5 4 3 2 2 2 6 9 9 5 7 8 9
25 25 24 24 22 22 22 22 20 17 17 14 11 10 7 6 9 9 4 4 5 6 7 7 10 11 12 10 8 10 12 12
24 24 23 25 22 21 22 22 19 16 15 13 13 11 8 9 11 10 7 4 8 11 13 14 11 10 10 8 9 12 14 15
27 25 27 25 22 20 20 19 18 15 12 12 12 12 10 10 12 12 9 7 9 11 11 11 13 14 14 12 17 17 14 15
29 25 26 22 23 19 19 19 16 10 9 12 11 12 13 10 8 7 6 5 7 9 11 13 14 15 15 16 16 9 10 14
28 29 27 24 26 22 20 18 12 5 4 5 8 8 7 6 5 4 3 7 10 13 15 16 16 19 21 16 13 11 9 11
33 30 28 26 27 25 23 21 9 3 3 7 8 7 7 7 6 4 7 10 12 14 17 19 22 22 18 18 12 7 8 9
33 32 30 27 25 26 27 24 14 7 6 8 9 9 8 5 5 6 9 12 17 19 20 21 20 20 19 15 12 10 12 9
31 30 31 30 31 30 28 26 20 13 11 11 11 8 5 6 8 11 15 20 21 20 19 19 19 19 17 17 18 6 6 9
30 30 31 30 26 25 27 26 20 13 13 11 9 9 10 8 9 14 18 19 19 19 19 20 18 16 16 18 4 16 4 4
30 29 26 26 24 26 27 21 19 19 17 14 14 15 12 10 14 19 20 19 19 19 20 18 16 16 18 14 6 4 16 6
25 25 27 27 26 29 31 28 28 25 19 19 19 16 12 13 18 20 17 19 18 18 17 16 16 15 17 16 14 16 13 8
21 25 26 26 29 30 26 26 23 23 24 21 17 14 13 16 18 17 18 17 17 16 14 13 14 16 16 16 17 20 21 19
19 22 28 31 30 29 28 27 28 29 26 21 16 15 17 18 18 16 15 16 16 15 13 13 15 19 19 19 17 12 14 15
17 22 29 29 28 27 27 30 31 27 24 20 19 19 17 14 14 14 14 15 14 13 14 15 18 15 13 13 12 15 16 15
24 25 26 25 28 28 26 25 23 22 21 19 17 14 13 12 15 14 15 15 14 15 16 15 18 15 16 17 17 16 18 20

GFSFLT2_850_spd_027.txt.gz
Wind_Speed
31 34 33 29 27 23 21 20 18 18 20 21 22 22 22 20 19 17 15 13 10 9 8 8 7 7 10 7 9 9 11 13
30 33 30 24 22 17 15 15 18 19 20 22 21 20 18 17 15 14 13 11 7 6 4 2 2 4 6 9 10 13 13 12
19 34 26 27 26 15 16 18 20 20 21 21 19 17 17 16 13 12 10 8 6 3 1 2 3 5 9 9 11 13 12 12
30 35 29 25 19 18 18 21 21 22 22 21 19 19 18 15 13 9 8 6 2 1 3 2 5 7 8 10 13 12 9 10
33 27 25 22 19 18 20 22 23 22 20 19 17 16 14 13 9 6 4 3 2 4 4 3 4 7 11 11 10 10 10 9
29 25 23 22 21 22 24 24 22 20 19 16 14 14 11 9 8 6 5 4 5 6 6 6 8 9 8 9 10 11 14 16
25 24 24 23 24 24 25 23 19 17 14 13 11 9 8 7 8 9 7 6 7 8 9 10 9 9 10 11 12 15 20 19
23 23 23 25 25 23 22 21 17 16 15 12 10 10 9 9 12 11 10 8 8 7 8 9 11 12 11 13 17 21 18 16
25 25 25 28 23 23 21 19 18 16 13 12 13 14 13 13 12 11 8 7 6 8 9 11 12 13 15 17 17 14 16 18
25 27 27 25 24 23 21 19 18 14 12 13 13 15 16 12 10 9 7 5 6 9 11 12 14 17 18 16 15 11 11 14
30 28 29 26 24 22 20 20 18 11 8 9 14 14 12 12 8 6 5 5 8 12 13 17 18 17 16 14 11 10 14 15
29 28 27 26 24 24 22 22 19 11 8 8 12 12 11 9 8 5 5 8 12 15 18 19 19 18 15 12 11 14 14 14
30 29 29 29 30 31 28 26 23 16 9 9 10 10 10 10 6 6 9 13 18 22 24 22 20 19 16 14 14 8 7 10
32 31 30 31 31 31 28 26 22 16 14 12 12 13 12 8 7 9 12 17 21 25 24 22 21 18 15 14 1 8 18 9
34 32 32 33 32 29 27 27 24 23 18 17 17 15 12 10 11 12 14 19 24 25 23 20 18 17 14 10 5 4 8 16
36 36 33 33 33 32 32 33 31 28 23 21 18 15 13 13 14 15 18 22 23 22 20 19 16 14 13 12 10 11 10 9
36 33 33 35 34 35 33 34 28 26 24 22 18 16 16 17 16 16 19 22 21 19 17 15 12 12 13 14 15 17 17 16
32 27 28 34 33 33 31 28 28 26 25 23 21 20 19 18 15 15 19 19 25 18 15 14 14 15 18 15 13 13 13 15
29 29 28 28 31 32 27 27 27 26 27 27 25 22 19 14 13 14 19 23 16 15 14 15 15 16 14 13 13 13 15 16
27 27 24 29 32 28 27 28 29 31 30 28 24 21 16 14 17 24 14 14 15 14 14 13 13 14 15 16 17 16 16 17

GFSFLT2_850_spd_030.txt.gz
Wind_Speed
29 31 32 28 23 21 23 23 23 23 24 26 26 26 24 21 18 16 14 12 11 9 7 8 8 9 9 10 11 13 13 12
21 30 38 29 24 22 22 21 23 22 23 24 25 24 22 19 16 13 11 9 7 6 4 4 5 7 7 9 10 12 14 13
30 42 34 24 22 21 20 18 16 20 23 24 24 22 19 16 14 11 7 4 3 3 4 3 5 7 9 11 11 12 10 10
40 41 30 27 25 23 15 15 20 23 23 22 21 19 17 15 12 9 6 3 2 2 3 3 5 7 8 10 10 10 10 10
22 35 32 30 24 19 18 20 22 22 22 20 19 17 15 12 9 7 5 5 2 1 2 3 6 8 11 10 10 11 12 13
50 43 33 24 16 17 19 21 23 23 21 18 16 15 12 11 8 7 7 5 3 3 4 5 7 9 8 11 11 12 14 17
34 31 29 25 24 22 21 23 22 20 18 16 14 11 10 11 9 9 7 5 5 7 7 6 8 9 11 13 14 16 17 19
29 27 24 21 21 21 23 21 20 19 15 14 12 11 10 9 8 9 9 8 7 5 5 7 10 12 14 17 18 18 16 13
25 23 22 22 21 22 24 20 16 15 15 11 10 11 11 10 11 11 10 8 5 5 7 10 13 15 16 16 14 14 12 11
21 21 22 23 23 22 20 19 17 15 13 12 13 13 13 13 13 11 9 5 4 7 9 11 13 14 13 14 14 13 13 14
21 21 23 25 24 21 18 18 18 16 13 12 13 14 15 14 11 9 7 5 5 8 11 12 13 14 14 14 14 14 14 13
23 24 25 26 23 21 21 21 20 17 14 11 14 15 13 12 11 9 7 6 7 9 11 14 15 15 14 13 14 14 12 11
28 27 26 26 25 25 26 26 22 20 16 10 12 13 13 14 12 9 7 6 7 10 14 16 16 16 15 16 14 9 8 8
32 31 30 30 29 28 27 25 23 20 17 14 13 15 16 14 11 10 9 8 10 14 17 20 20 18 16 16 6 11 11 13
36 36 33 33 32 30 29 29 25 24 22 19 19 18 15 13 12 12 9 9 13 17 20 22 20 19 16 12 6 4 15 15
33 32 32 31 30 31 32 32 31 30 25 22 20 18 17 16 14 12 10 11 15 20 26 25 20 17 15 13 12 13 9 10
32 33 30 32 31 31 32 33 32 28 24 24 23 20 18 17 17 13 10 11 18 30 32 23 18 14 13 14 14 14 14 15
35 23 34 35 33 33 36 36 33 27 28 26 24 21 20 20 16 13 13 18 24 30 21 19 17 15 14 13 10 10 12 13
39 36 35 37 37 30 34 34 31 26 26 26 26 24 24 22 19 18 18 19 25 18 17 17 16 14 12 11 10 12 13 15
40 34 36 35 33 30 32 34 28 27 27 26 27 27 27 25 23 19 20 30 19 15 16 14 14 12 11 12 13 14 14 15

GFSFLT2_850_spd_033.txt.gz
Wind_Speed
26 30 29 30 27 22 27 27 27 29 31 31 31 29 25 23 20 17 14 13 12 12 11 10 10 9 9 10 12 14 13 13
30 33 30 32 30 21 24 26 26 28 30 30 29 26 23 20 17 15 13 10 10 9 8 7 7 7 9 12 13 13 14 13
34 38 40 33 27 26 22 22 24 27 29 28 27 24 20 17 14 11 9 9 7 6 5 5 5 7 9 11 11 11 11 12
40 44 43 34 24 26 24 22 23 26 28 27 24 22 18 15 12 9 7 6 4 4 4 3 4 7 9 10 12 12 11 10
48 49 46 38 28 26 25 17 20 24 24 23 22 19 16 13 11 9 6 4 2 2 2 4 6 8 10 10 11 12 13 13
41 44 46 35 28 27 13 15 22 24 22 20 18 16 15 13 10 8 6 3 1 1 3 6 8 10 10 11 12 13 14 15
35 42 41 32 24 25 24 24 23 22 20 18 17 15 13 11 9 8 7 4 3 4 6 7 8 10 11 13 15 16 16 14
38 40 30 24 19 20 19 22 22 21 20 17 15 14 11 10 9 9 8 5 5 6 6 6 8 12 15 16 15 12 11 10
35 31 25 22 19 18 21 23 22 19 18 16 15 13 12 10 10 9 7 7 7 6 5 7 11 14 14 14 13 11 9 8
26 23 20 20 18 19 21 21 20 18 18 17 15 12 11 11 10 10 10 8 7 4 5 9 11 12 12 12 11 11 10 9
24 22 21 20 19 19 20 19 18 17 18 14 12 12 12 13 13 11 10 10 7 5 7 9 10 11 10 10 11 12 12 9
22 21 21 20 20 20 21 21 20 21 18 13 14 14 14 15 12 13 13 11 7 7 7 8 8 9 10 11 14 13 9 7
25 24 24 25 27 27 26 24 26 25 20 17 14 14 14 15 16 15 13 9 9 7 7 7 10 12 12 16 11 8 8 8
31 29 26 27 29 28 27 26 25 22 20 20 17 16 16 18 18 15 13 12 9 6 7 11 15 17 13 12 3 8 9 10
33 29 29 29 29 28 29 26 27 25 26 23 21 18 19 20 19 17 15 11 7 5 10 18 20 21 15 9 5 4 11 9
32 31 31 32 32 32 32 32 30 30 26 25 23 23 22 22 21 17 14 11 6 9 17 22 19 17 14 13 13 13 6 9
31 32 33 33 33 34 32 33 33 30 28 27 26 25 24 23 20 18 16 13 12 17 15 15 21 16 15 14 14 13 13 11
34 35 34 35 36 33 35 34 33 33 31 29 28 28 26 22 22 20 17 16 16 12 24 25 12 17 15 13 12 8 8 9
36 34 26 21 25 34 35 35 34 35 32 28 30 30 29 26 24 23 20 17 13 19 18 11 13 12 14 13 12 11 12 11
35 34 34 20 24 34 38 36 36 34 33 28 29 29 29 29 25 22 19 13 16 7 15 10 11 14 14 12 12 11 13 14

GFSFLT2_850_spd_036.txt.gz
Wind_Speed
32 32 30 27 27 27 32 30 31 34 32 31 29 26 25 23 21 19 17 15 14 12 12 10 10 11 11 12 13 13 10 10
33 35 35 35 30 27 28 29 30 33 32 30 28 25 22 20 17 16 14 13 12 10 9 9 8 8 10 12 12 14 9 9
35 36 34 37 38 26 24 26 27 30 31 28 26 22 19 17 15 14 12 10 10 9 8 6 6 7 9 10 12 7 8 7
41 40 40 42 35 36 24 23 27 30 31 28 19 20 18 16 15 11 9 8 9 7 5 4 6 5 7 8 6 8 7 7
38 40 46 44 38 36 27 27 29 30 30 26 22 21 17 15 14 11 8 8 8 5 3 2 2 4 5 7 10 8 7 6
44 44 45 42 37 30 28 27 24 22 21 24 22 18 16 13 11 10 9 8 5 2 0 2 4 6 9 11 11 8 6 6
38 36 33 37 38 34 34 28 23 24 28 22 17 16 15 13 12 10 9 7 3 2 2 1 5 8 9 10 11 12 10 5
40 43 42 39 39 34 32 21 24 26 20 17 19 15 14 13 10 9 9 7 5 3 3 2 3 8 11 11 10 8 7 5
36 42 32 34 24 19 18 19 23 18 16 19 17 16 14 12 11 10 9 8 8 6 2 3 7 9 9 9 8 9 7 6
34 27 22 20 20 24 21 20 23 17 20 20 17 17 15 13 12 11 11 10 8 6 5 3 4 3 4 7 8 8 8 5
32 24 18 17 16 17 19 21 22 19 21 19 17 16 13 16 13 13 12 11 11 9 3 2 3 3 5 7 7 4 3 1
25 23 21 18 17 19 17 20 20 21 21 20 18 16 15 16 16 15 15 14 11 7 5 6 6 8 5 5 6 5 4 3
23 22 20 21 18 18 17 20 19 22 21 21 20 17 16 18 19 17 17 13 12 11 8 6 7 10 4 7 8 6 6 6
24 24 22 21 18 18 19 19 19 20 23 23 22 18 18 20 19 18 18 17 16 12 9 6 4 7 6 8 7 9 7 7
28 25 22 21 21 19 19 18 24 25 26 25 25 22 22 21 21 22 21 19 17 14 12 9 6 8 11 8 7 9 8 9
28 26 25 24 24 22 24 23 23 27 30 25 28 26 25 25 24 24 22 20 19 17 14 8 11 7 10 9 11 9 7 9
29 28 27 27 26 26 27 28 24 25 26 28 28 28 28 28 26 25 23 22 22 20 12 9 11 14 7 8 8 8 8 10
30 30 26 23 23 29 29 31 30 32 27 28 31 30 30 30 27 25 25 25 23 18 13 13 9 9 9 9 9 9 11 12
30 28 27 27 28 24 34 36 32 34 34 34 33 34 31 29 29 30 29 27 23 18 15 12 14 12 11 10 9 10 10 11
31 34 34 32 26 31 32 33 33 35 30 33 34 33 29 28 32 32 30 25 22 19 15 14 12 13 11 11 9 9 10 11